Weather Roundup
Issued by NWS

Home | Current Version | Previous Version | Graphics & Text | Print | Product List | Glossary On
Versions: 1 2 3 4 5 6 7 8 9 10 11 12 13 14 15 16 17 18 19 20 21 22 23 24 25 26 27 28 29 30 31 32 33 34 35 36 37 38 39 40 41 42 43 44 45 46 47 48 49 50
000
NZUS93 KARX 200810
HRRWXR

CURRENT HOURLY OBSERVATIONS ACROSS
MUCH OF THE UPPER MISSISSIPPI VALLEY
NATIONAL WEATHER SERVICE LA CROSSE WI
200 AM CST MON NOV 20 2017


...SOUTHEAST MINNESOTA...


CITY           SKY/WX    TMP DP  RH WIND       PRES   REMARKS
ROCHESTER      CLOUDY    30  26  85 S9        29.81S WCI  22
ROCHESTER/MAYO FAIR      33  27  77 S7        29.81F WCI  27
WINONA         CLEAR     34  28  80 NE3       29.84S
AUSTIN         CLOUDY    30  25  80 S5        29.80F WCI  25
ALBERT LEA     CLOUDY    34  27  75 S5        29.79F WCI  30
DODGE CENTER   CLEAR     30  27  86 S9        29.79F WCI  22
PRESTON        CLOUDY    32  26  77 SW13      29.82S WCI  22
OWATONNA       CLEAR     32  27  80 S8        29.78F WCI  25
FARIBAULT      CLEAR     32  27  80 S6        29.78F WCI  26
$$

...ELSEWHERE IN MINNESOTA...


CITY           SKY/WX    TMP DP  RH WIND       PRES   REMARKS
MINNEAPOLIS    PTCLDY    35  27  72 S5        29.76F WCI  31
INTNL FALLS    CLOUDY    14  10  84 SE5       29.67F WCI   6
DULUTH         CLOUDY    20  18  92 SE3       29.72R
RED WING       CLEAR     30  25  80 CALM      29.78F
REDWOOD FALLS  CLEAR     31  22  69 SE3       29.73F
MANKATO        CLEAR     30  26  85 S9        29.77F WCI  22
WORTHINGTON    CLOUDY    33  24  69 SW9       29.74F WCI  25
FAIRMONT       CLOUDY    26  24  92 S8        29.77F WCI  18
$$

...SOUTHWEST WISCONSIN...


CITY           SKY/WX    TMP DP  RH WIND       PRES   REMARKS
LA CROSSE      CLEAR     35  26  69 S10       29.86R WCI  27
PRAIRIE DU CHI CLOUDY    36  24  63 CALM      29.89F
BOSCOBEL       CLOUDY    27  22  81 CALM      29.90F
LONE ROCK      CLOUDY    28  22  78 CALM      29.91S
PLATTEVILLE    CLOUDY    30  27  88 S8        29.91F WCI  22
FORT MC COY    CLEAR     21  20  95 E5        29.87S WCI  15
CAMP DOUGLAS   CLEAR    N/A N/A N/A SW5       29.86S
MAUSTON-NEW LI SUNNY     34  25  67 S6        29.86R WCI  29
VIROQUA        FAIR      32  27  80 SW6       29.85S WCI  26
WIS DELLS      CLEAR     33  23  69 W7        29.88R WCI  26
$$

...ELSEWHERE IN WISCONSIN...


CITY           SKY/WX    TMP DP  RH WIND       PRES   REMARKS
MILWAUKEE      PTCLDY    31  23  72 SW10      29.95F WCI  22
MADISON        CLEAR     33  24  69 S9        29.90F WCI  25
GREEN BAY      PTCLDY    29  24  82 SW6       29.87F WCI  23
EAU CLAIRE     CLEAR     21  18  88 CALM      29.78F
BLACK RVR FLS  FAIR      16  16 100 CALM      29.83F
MEDFORD        CLEAR     23  20  89 S5        29.78F WCI  17
WAUSAU         CLEAR     26  20  77 SW7       29.81S WCI  18
WIS RAPIDS     CLEAR     22  19  89 S3        29.85F
MARSHFIELD     CLEAR     24  19  81 CALM      29.80F
RICE LAKE      CLEAR     22  19  91 CALM      29.78F
$$

...NORTHEAST IOWA...


CITY           SKY/WX    TMP DP  RH WIND       PRES   REMARKS
WATERLOO       PTCLDY    33  26  75 S8        29.87F WCI  26
DUBUQUE        CLOUDY    31  25  78 S12       29.91F WCI  22
DECORAH        CLOUDY    34  27  75 S8G14     29.83F WCI  27
MASON CITY     CLOUDY    31  25  78 S6        29.83F WCI  25
CHARLES CITY   CLOUDY    32  30  93 S9        29.84F WCI  24
OELWEIN        CLOUDY    30  30 100 S8        29.88F WCI  23
$$

...ELSEWHERE IN IOWA...


CITY           SKY/WX    TMP DP  RH WIND       PRES   REMARKS
DES MOINES     PTCLDY    41  27  57 SW15      29.89F
IOWA CITY      CLOUDY    34  26  72 CALM      29.96F
FORT DODGE     CLOUDY    33  25  72 S6        29.82F WCI  28
MARSHALLTOWN   CLEAR     37  28  70 SW13      29.86F WCI  29
CEDAR RAPIDS   CLOUDY    32  27  81 S10       29.91F WCI  24
$$

...NORTHERN ILLINOIS...


CITY           SKY/WX    TMP DP  RH WIND       PRES   REMARKS
CHICAGO-OHARE  CLOUDY    31  22  69 SW8       30.00F WCI  23
CHICAGO-MIDWAY PTCLDY    32  23  69 SW9       30.02F WCI  24
MOLINE         CLOUDY    35  24  64 SW7       29.97F WCI  29
ROCKFORD       CLOUDY    29  23  78 S8        30.00F WCI  21
PEORIA         CLOUDY    31  24  75 S10       30.05F WCI  22
$$

NOTE: "FAIR" INDICATES FEW OR NO CLOUDS BELOW 12,000 FEET WITH NO
SIGNIFICANT WEATHER AND/OR OBSTRUCTIONS TO VISIBILITY. WIND
SPEEDS ARE IN MILES-PER-HOUR.




USA.gov is the U.S. government's official web portal to all federal, state and local government web resources and services.